Regional Weather Roundup
Issued by NWS Jackson, KY

Home | Current Version | Previous Version | Text Only | Print | Product List | Glossary Off
Versions: 1 2 3 4 5 6 7 8 9 10 11 12 13 14 15 16 17 18 19 20 21 22 23 24 25 26 27 28 29 30 31 32 33 34 35 36 37 38 39 40 41 42 43 44 45 46 47 48 49 50

000
ASUS43 KJKL 061910
RWRJKL

EAST KENTUCKY HOURLY WEATHER ROUNDUP
NATIONAL WEATHER SERVICE JACKSON KY
300 PM EDT WED MAY 06 2015

NOTE: "FAIR" INDICATES FEW OR NO CLOUDS BELOW 12,000 FEET WITH
NO SIGNIFICANT WEATHER AND/OR OBSTRUCTIONS TO VISIBILITY.

* THESE REPORTS ARE NOT UNDER NWS QUALITY CONTROL AND MAY NOT
  REPORT WEATHER SUCH AS PRECIPITATION AND FOG.

KYZ079-080-083-085-087-088-110-112-115-119-120-062000
...EASTERN KENTUCKY...

CITY           SKY/WX    TMP DP  RH WIND       PRES   REMARKS
JACKSON        PTSUNNY   80  55  42 CALM      30.18F
LONDON         SUNNY     84  49  29 E5        30.17F
SOMERSET*      PTSUNNY   79  54  41 CALM      30.17F
MONTICELLO*    MOSUNNY   83  58  42 N7        30.18F
MIDDLESBORO*   SUNNY     85  54  34 S6        30.16F
HARLAN APT*    MOCLDY    75  52  43 E7        30.20R
HAZARD APT*    CLEAR     84  54  34 SE3       30.18F
BLACK MTN*       N/A     70  50  49 E2          N/A
PIKEVILLE APT* SUNNY     81  54  39 N3        30.19F
BIG SANDY*     CLEAR    N/A N/A N/A CALM      30.18F
MOREHEAD APT*  MOCLDY    82  52  34 CALM      30.20S
$$

KYZ035-036-041-042-044-050-067-078-099-062000
...CENTRAL KENTUCKY...

CITY           SKY/WX    TMP DP  RH WIND       PRES   REMARKS
MT STERLING*   SUNNY     84  55  37 CALM      30.19F
FLEMING/MASON* SUNNY     84  54  34 CALM      30.19F
DANVILLE*      SUNNY     81  59  47 NE5       30.19F
RICHMOND*      MOSUNNY   81  55  41 E6        30.18F
LEXINGTON      PTSUNNY   81  56  42 NE7       30.18F
FRANKFORT      MOSUNNY   82  55  39 VRB3      30.16F
$$

KYZ091>093-OHZ055-061-077-WVZ005-015-034-035-042-062000
...SOUTHERN OHIO/WEST VIRGINIA...

CITY           SKY/WX    TMP DP  RH WIND       PRES   REMARKS
COVINGTON      PTSUNNY   83  53  35 W5        30.17F
COLUMBUS       MOSUNNY   83  56  39 VRB3      30.16F
DAYTON         PTSUNNY   85  53  33 W5        30.18F
WILMINGTON     SUNNY     82  53  36 SE7       30.17F
HUNTINGTON     SUNNY     84  51  31 CALM      30.16F
CHARLESTON     MOSUNNY   85  50  29 CALM      30.16F
PINEVILLE*     PTSUNNY   81  54  38 MISG      30.24F
BECKLEY        MOSUNNY   78  46  32 CALM      30.23F
BLUEFIELD      MOSUNNY   81  51  35 VRB6      30.24F
$$

VAZ002-007-008-TNZ017-027-036-066-071-062000
...SOUTHWEST VIRGINIA/EAST TENNESSEE...

CITY           SKY/WX    TMP DP  RH WIND       PRES   REMARKS
WISE*          CLOUDY    77  46  33 CALM      30.25F
JONESVILLE*    PTCLDY    77  55  47 N9        30.20S
ABINGDON*      PTSUNNY   82  50  33 E10       30.20F
BRISTOL        MOSUNNY   84  51  31 CALM      30.16F
KNOXVILLE      MOSUNNY   83  53  35 VRB5      30.14F
OAK RIDGE      SUNNY     85  55  35 CALM      30.16F
CROSSVILLE     CLOUDY    78  52  40 VRB3      30.19F
NASHVILLE      MOSUNNY   85  55  35 E3        30.15F
$$

...KEY TO REMARKS...
VSB - VISIBILITY IN MILES
WCI - WIND CHILL INDEX
HX  - HEAT INDEX

$$



USA.gov is the U.S. government's official web portal to all federal, state and local government web resources and services.